Regional Weather Roundup
Issued by NWS

Home | Current Version | Previous Version | Text Only | Print | Product List | Glossary On
Versions: 1 2 3 4 5 6 7 8 9 10 11 12 13 14 15 16 17 18 19 20 21 22 23 24 25 26 27 28 29 30 31 32 33 34 35 36 37 38 39 40 41 42 43 44 45 46 47 48 49 50
000
ASUS44 KOUN 190200
RWROK

WEATHER ROUNDUP FOR OKLAHOMA
NATIONAL WEATHER SERVICE NORMAN OK
900 PM CDT THU SEP 18 2014

NOTE: "FAIR" INDICATES FEW OR NO CLOUDS BELOW 12,000 FEET WITH NO
      SIGNIFICANT WEATHER AND/OR OBSTRUCTIONS TO VISIBILITY.

OKZ001>007-009>012-014-015-017-190300-
NORTHWEST OKLAHOMA AND THE PANHANDLE

CITY           SKY/WX    TMP DP  RH WIND       PRES   REMARKS
GAGE           CLEAR     74  65  73 S9        29.95R
ENID/WOODRING  PTCLDY    77  64  65 E13G21    29.91R
$$

OKZ016-021>023-033>039-044-045-190300-
SOUTHWEST OKLAHOMA

CITY           SKY/WX    TMP DP  RH WIND       PRES   REMARKS
LAWTON/REGL    CLOUDY    77  67  71 SE3       29.92R
LAWTON/FT SILL CLOUDY    75  68  77 S5        29.91R
FREDERICK      CLOUDY    75  69  81 E7        29.90R
CLINTON        PTCLDY    74  66  76 S5        29.96R
HOBART         MOCLDY    74  66  76 S7        29.94R
$$

OKZ018>020-024>031-190300-
CENTRAL OKLAHOMA

CITY           SKY/WX    TMP DP  RH WIND       PRES   REMARKS
OKLAHOMA CITY  PTCLDY    74  67  78 SE8       29.93R
OKC/WILEY POST CLEAR     77  67  71 S12       29.93R
OKC/TINKER AFB MOCLDY    74  67  78 S10       29.93R
STILLWATER     CLEAR     74  63  68 E7        29.94R
GUTHRIE        CLEAR     77  68  73 SE9       29.93R
$$

OKZ008-013-054>072-190300-
NORTHEAST OKLAHOMA

CITY           SKY/WX    TMP DP  RH WIND       PRES   REMARKS
TULSA          CLEAR     75  65  70 NE5       29.94R
TULSA/JONES    CLEAR     70  68  93 CALM      29.94R
PONCA CITY     CLEAR     72  64  76 E12       29.94R
BARTLESVILLE   CLEAR     64  64 100 CALM      29.96R
MUSKOGEE       CLEAR     71  67  87 SE5       29.94R
$$

OKZ032-040>043-046>053-073>077-190300-
SOUTH CENTRAL/SOUTHEAST OKLAHOMA

CITY           SKY/WX    TMP DP  RH WIND       PRES   REMARKS
MCALESTER      PTCLDY    75  68  78 E5        29.94R
$$



USA.gov is the U.S. government's official web portal to all federal, state and local government web resources and services.